AirNav   ProFlight Series 2 Aviation Headset
 
 781 users online  

FL30 HCA New Port Richey Hospital Heliport
New Port Richey, Florida, USA

GOING TO NEW PORT RICHEY?


FAA INFORMATION EFFECTIVE 16 JULY 2020

Location

FAA Identifier: FL30
Lat/Long: 28-14-06.5700N 082-43-20.5000W
28-14.109500N 082-43.341667W
28.2351583,-82.7223611
(estimated)
Elevation: 25 ft. / 8 m (estimated)
Variation: 02W (1985)
From city: 1 mile S of NEW PORT RICHEY, FL
Time zone: UTC -4 (UTC -5 during Standard Time)
Zip code: 34652

Heliport Operations

Heliport use: Private use, MEDICAL
Activation date: 01/1990
Control tower: no
ARTCC: MIAMI CENTER
FSS: SAINT PETERSBURG FLIGHT SERVICE STATION
Attendance: CONTINUOUS
Wind indicator: yes
Segmented circle: no
Lights: SS-SR

Heliport Communications

WX AWOS-3P at CLW (16 nm S): 119.225 (727-449-2184)
WX ASOS at TPA (19 nm SE): PHONE 813-873-7228
WX ASOS at PIE (20 nm S): PHONE 727-531-3456

Nearby radio navigation aids

VOR radial/distance  VOR name  Freq  Var
PIEr359/19.7ST PETERSBURG VORTAC116.4005W

 
NDB name  Hdg/Dist  Freq  Var  ID
COSME316/13.836805WTP - .--.
CAPOK001/14.436005WPI .--. ..

Heliport Services

Runway Information

Helipad H1

Dimensions: 60 x 60 ft. / 18 x 18 m
Surface: concrete, in good condition
Runway edge lights: FLD
Latitude: 28-14.109500N
Longitude: 082-43.341667W
Elevation: 25.0 ft.
Traffic pattern: leftleft

Heliport Ownership and Management from official FAA records

Ownership: Privately-owned
Owner: HCA NEW PORT RICHEY HOSPITAL
5637 MARINE PKWY PO BOX 996
NEW PORT RICHEY, FL 34656
Phone 813-848-1733
Manager: ANDREW ORAVEC, JR ADM
5637 MARINE PKWY PO BOX 996
NEW PORT RICHEY, FL 34656
Phone 813-848-1733
ADDITIONAL CONTACT: DEVIN SOMMISE 9330 STATE RD 54 TRINITY, FL 34655 727-834-4838

Additional Remarks

A52-H1 30' SCHOOL 2000' E; 175' TWR 900' E; 50' BLDG 200' E 14' BLDG 175' SW; 190'TWR 3000' S.
FOR CD CTC TAMPA APCH AT 813-878-2528

Instrument Procedures

There are no published instrument procedures at FL30.

Some nearby airports with instrument procedures:

KCLW - Clearwater Air Park (16 nm S)
KTPA - Tampa International Airport (19 nm SE)
KPIE - St Pete-Clearwater International Airport (20 nm S)
KBKV - Brooksville-Tampa Bay Regional Airport (20 nm NE)
KVDF - Tampa Executive Airport (24 nm SE)
 
Loc | Ops | Rwys | IFR | FBO | Links
Com | Nav | Svcs | Stats | Notes


 
Area around FL30 (HCA New Port Richey Hospital Heliport)
 
Road maps at: MapQuest Bing Google
 
Aerial photo
No photo
 
Sectional chart

 
Airport distance calculator
Flying to HCA New Port Richey Hospital Heliport? Find the distance to fly.

From to FL30

Sunrise and sunset
Times for 13-Aug-2020
 Local
(UTC-4)
 Zulu
(UTC)
Morning civil twilight06:3610:36
Sunrise07:0111:01
Sunset20:1000:10
Evening civil twilight20:3500:35

Current date and time
Zulu (UTC)  13-Aug-2020 04:23:10
Local (UTC-4)  13-Aug-2020 00:23:10
 
METAR
KCLW 
16nm S 
130355Z AUTO 14003KT 10SM CLR 27/22 A3004 RMK AO2
KTPA 
19nm SE 
130353Z 12003KT 10SM SCT050 BKN170 27/21 A3004 RMK AO2 SLP172 T02720211
KPIE 
19nm S 
130353Z AUTO 00000KT 10SM CLR 27/24 A3004 RMK AO2 SLP170 T02720244
KBKV 
20nm NE 
130353Z AUTO 14003KT 10SM CLR 24/22 A3005 RMK AO2 SLP174 T02390217
KVDF 
24nm SE 
130355Z AUTO 00000KT 10SM CLR 23/23 A3005 RMK AO2
KTPF 
24nm SE 
130355Z AUTO 09003KT 10SM BKN110 26/25 A3004 RMK AO2
KMCF 
26nm SE 
130356Z AUTO 08003KT 10SM SCT210 26/22 A3003 RMK AO2 SLP172 T02580223 FZRANO $
KSPG 
29nm S 
130353Z AUTO 12004KT 10SM CLR 28/23 A3002 RMK AO2 SLP164 T02780228
KZPH 
30nm E 
130355Z AUTO 00000KT 10SM CLR 24/23 A3006 RMK A02 T02400232
TAF
KTPA 
19nm SE 
122103Z 1221/1324 35006KT P6SM VCTS SCT040CB BKN250 FM130200 VRB03KT P6SM FEW030 SCT250 FM131700 21005KT P6SM VCTS SCT030CB BKN250
KPIE 
19nm S 
121722Z 1218/1318 36005KT P6SM VCTS SCT030CB BKN250 FM130000 VRB03KT P6SM FEW030 SCT250 FM131700 09006KT P6SM VCTS SCT030CB BKN250
NOTAMs
Click for the latest NOTAMs
NOTAMs are issued by the DoD/FAA and will open in a separate window not controlled by AirNav.

 

 
 

Would you like to see your business listed on this page?

 If your business provides an interesting product or service to pilots, flight crews, aircraft, or users of the HCA New Port Richey Hospital Heliport, you should consider listing it here.  To start the listing process, click on the button below
 
Add a business
 

Other Pages about HCA New Port Richey Hospital Heliport

Update a link
 
Copyright © AirNav, LLC. All rights reserved. Privacy Policy  Contact